Brevnov, Czech Republic

2:26 AM CEST on April 30, 2017 (GMT +0200)
Brevnov

Weather History for 11518 - December, 2013

Change the Weather History Date:

Friday, December 13, 2013

  Actual Average Record
Temperature  
Mean Temperature 30 °F -  
Max Temperature 32 °F 34 °F - ()
Min Temperature 29 °F 24 °F - ()
Degree Days  
Heating Degree Days 34    
Moisture  
Dew Point 30 °F    
Average Humidity 97    
Maximum Humidity 100    
Minimum Humidity 93    
Precipitation  
Precipitation 0.00 in 0.03 in - ()
Sea Level Pressure  
Sea Level Pressure 30.30 in    
Wind  
Wind Speed 3 mph ()    
Max Wind Speed 7 mph    
Max Gust Speed -    
Visibility 0.3 miles    
Events Fog , Rain , Snow    
T = Trace of Precipitation, MM = Missing Value Source: Averaged Metar Reports

Daily Weather History Graph

Daily Weather History Graph

Search for Another Location

Airport or City:

Trip Planner

Search our weather history database for the weather conditions in past years. The results will help you decide how hot, cold, wet, or windy it might be!

Date:

Astronomy

Dec. 13, 2013 Rise Set
Actual Time 7:53 AM CET 4:00 PM CET
Civil Twilight 7:15 AM CET 4:39 PM CET
Nautical Twilight 6:33 AM CET 5:20 PM CET
Astronomical Twilight 5:54 AM CET 6:00 PM CET
Moon 1:48 PM CET (12/13) 3:41 AM CET (12/13)
Length of Visible Light 9h 23m
Length of Day
8h 06m
Waxing Gibbous, 86% of the Moon is Illuminated
Dec 13
Waxing Gibbous
Dec 17
Full
Dec 25
Last Quarter
Jan 1
New
Jan 8
First Quarter

Hourly Weather History & Observations

Time (CET) Temp. Windchill Dew Point Humidity Pressure Visibility Wind Dir Wind Speed Gust Speed Precip Events Conditions
12:00 AM 30.2 °F 26.7 °F 30.2 °F 100% 30.36 in 0.4 mi SSW 3.5 mph - N/A Fog Light Freezing Drizzle
12:04 AM 30.2 °F - 30.2 °F 100% 30.36 in 0.4 mi Variable 2.3 mph - N/A Fog Light Freezing Drizzle
12:30 AM 30.2 °F - 30.2 °F 100% 30.36 in 0.3 mi Variable 2.3 mph - N/A Fog Light Freezing Drizzle
1:00 AM 31 °F - 30 °F 95% 30.43 in 0 mi South 2.2 mph - - Rain Light Freezing Drizzle
1:00 AM 30.2 °F 26.7 °F 30.2 °F 100% 30.36 in 0.2 mi South 3.5 mph - N/A Fog Light Freezing Drizzle
1:30 AM 30.2 °F 25.4 °F 30.2 °F 100% 30.36 in 0.3 mi South 4.6 mph - N/A Fog Light Freezing Drizzle
2:00 AM 30.2 °F 26.7 °F 30.2 °F 100% 30.33 in 0.3 mi South 3.5 mph - N/A Fog Light Freezing Drizzle
2:30 AM 30.2 °F - 30.2 °F 100% 30.33 in 0.2 mi Variable 2.3 mph - N/A Fog Light Freezing Drizzle
3:00 AM 30.2 °F 26.7 °F 30.2 °F 100% 30.33 in 0.3 mi South 3.5 mph - N/A Fog Light Freezing Drizzle
3:30 AM 30.2 °F - 30.2 °F 100% 30.33 in 0.4 mi Variable 2.3 mph - N/A Fog Light Freezing Drizzle
4:00 AM 30.2 °F - 30.2 °F 100% 30.33 in 0.4 mi Variable 2.3 mph - N/A Fog Light Freezing Drizzle
4:30 AM 30.2 °F 26.7 °F 30.2 °F 100% 30.33 in 0.5 mi SW 3.5 mph - N/A Fog Light Freezing Drizzle
5:00 AM 30.2 °F 24.3 °F 30.2 °F 100% 30.30 in 0.4 mi SSW 5.8 mph - N/A Fog Light Freezing Drizzle
5:30 AM 30.2 °F 26.7 °F 30.2 °F 100% 30.30 in 0.4 mi SW 3.5 mph - N/A Fog Light Freezing Drizzle
6:00 AM 30.2 °F 25.4 °F 30.2 °F 100% 30.30 in 0.3 mi SW 4.6 mph - N/A Fog Light Freezing Fog
6:30 AM 30.2 °F 26.7 °F 30.2 °F 100% 30.30 in 0.3 mi SW 3.5 mph - N/A Fog Light Freezing Fog
7:00 AM 29 °F - 29 °F 100% 30.40 in 0 mi WNW 4.5 mph - - Rain Light Freezing Drizzle
7:00 AM 30.2 °F 26.7 °F 28.4 °F 93% 30.30 in 0.4 mi West 3.5 mph - N/A Fog Light Freezing Fog
7:30 AM 30.2 °F 25.4 °F 28.4 °F 93% 30.30 in 0.4 mi WSW 4.6 mph - N/A Fog Light Freezing Drizzle
8:00 AM 30.2 °F 26.7 °F 28.4 °F 93% 30.30 in 0.4 mi SW 3.5 mph - N/A Fog Light Freezing Fog
8:30 AM 30.2 °F 24.3 °F 28.4 °F 93% 30.30 in 0.3 mi SW 5.8 mph - N/A Fog Light Freezing Fog
9:00 AM 30.2 °F 23.4 °F 30.2 °F 100% 30.30 in 0.2 mi SSW 6.9 mph - N/A Fog Light Freezing Fog
9:04 AM 30.2 °F 24.3 °F 30.2 °F 100% 30.30 in 0.2 mi South 5.8 mph - N/A Fog , Snow Light Snow
9:30 AM 30.2 °F 23.4 °F 30.2 °F 100% 30.30 in 0.2 mi SW 6.9 mph - N/A Fog Light Freezing Fog
10:00 AM 30.2 °F 24.3 °F 28.4 °F 93% 30.30 in 0.2 mi SW 5.8 mph - N/A Fog Light Freezing Fog
10:30 AM 30.2 °F 25.4 °F 30.2 °F 100% 30.30 in 0.2 mi SSW 4.6 mph - N/A Fog Light Freezing Fog
11:00 AM 30.2 °F 25.4 °F 30.2 °F 100% 30.30 in 0.1 mi SW 4.6 mph - N/A Fog Light Freezing Fog
11:30 AM 30.2 °F 26.7 °F 30.2 °F 100% 30.30 in 0.1 mi SW 3.5 mph - N/A Fog Light Freezing Fog
12:00 PM 30.2 °F 25.4 °F 30.2 °F 100% 30.30 in 0.2 mi SSW 4.6 mph - N/A Fog Light Freezing Fog
12:20 PM 30.2 °F 26.7 °F 30.2 °F 100% 30.30 in 0.2 mi WSW 3.5 mph - N/A Fog Light Freezing Fog
12:30 PM 30.2 °F 26.7 °F 30.2 °F 100% 30.30 in 0.1 mi West 3.5 mph - N/A Fog Light Freezing Fog
1:00 PM 31 °F - 30 °F 96% 30.36 in 0 mi South 2.2 mph - - Fog Heavy Fog
1:00 PM 30.2 °F - 30.2 °F 100% 30.27 in 0.1 mi SSW 2.3 mph - N/A Fog Light Freezing Fog
1:15 PM 32.0 °F - 30.2 °F 93% 30.27 in 0.2 mi SW 2.3 mph - N/A Fog Light Freezing Fog
1:30 PM 32.0 °F 28.7 °F 30.2 °F 93% 30.27 in 0.2 mi SW 3.5 mph - N/A Fog Light Freezing Fog
2:00 PM 32.0 °F 27.5 °F 30.2 °F 93% 30.27 in 0.1 mi SSW 4.6 mph - N/A Fog Light Freezing Fog
2:30 PM 32.0 °F 28.7 °F 30.2 °F 93% 30.27 in 0.2 mi SW 3.5 mph - N/A Fog Light Freezing Fog
3:00 PM 32.0 °F - 30.2 °F 93% 30.27 in 0.2 mi Variable 2.3 mph - N/A Fog Light Freezing Fog
3:30 PM 32.0 °F - 30.2 °F 93% 30.27 in 0.2 mi Variable 1.2 mph - N/A Fog Light Freezing Fog
4:00 PM 32.0 °F - 30.2 °F 93% 30.27 in 0.2 mi Variable 1.2 mph - N/A Fog Light Freezing Fog
4:30 PM 32.0 °F - 30.2 °F 93% 30.27 in 0.2 mi Calm Calm - N/A Fog Light Freezing Drizzle
5:00 PM 32.0 °F 28.7 °F 30.2 °F 93% 30.27 in 0.4 mi SSW 3.5 mph - N/A Fog Light Freezing Fog
5:30 PM 32.0 °F 28.7 °F 30.2 °F 93% 30.24 in 0.4 mi SSW 3.5 mph - N/A Fog Light Freezing Fog
6:00 PM 32.0 °F 28.7 °F 30.2 °F 93% 30.24 in 0.4 mi Variable 3.5 mph - N/A Fog Light Freezing Fog
6:30 PM 32.0 °F 28.7 °F 30.2 °F 93% 30.24 in 0.5 mi Variable 3.5 mph - N/A Fog Light Freezing Drizzle
7:00 PM 31 °F - 30 °F 96% 30.33 in 0 mi WSW 4.5 mph - - Fog Heavy Fog
7:00 PM 30.2 °F 25.4 °F 30.2 °F 100% 30.24 in 0.4 mi South 4.6 mph - N/A Fog Light Freezing Fog
7:30 PM 32.0 °F 27.5 °F 30.2 °F 93% 30.27 in 0.4 mi WSW 4.6 mph - N/A Fog Light Freezing Drizzle
8:00 PM 32.0 °F 28.7 °F 30.2 °F 93% 30.27 in 0.4 mi WSW 3.5 mph - N/A Fog Light Freezing Drizzle
8:30 PM 32.0 °F 28.7 °F 30.2 °F 93% 30.24 in 0.4 mi WSW 3.5 mph - N/A Fog Light Freezing Drizzle
9:00 PM 30.2 °F 26.7 °F 30.2 °F 100% 30.24 in 0.4 mi West 3.5 mph - N/A Fog Light Freezing Drizzle
9:30 PM 30.2 °F 25.4 °F 30.2 °F 100% 30.27 in 0.4 mi WSW 4.6 mph - N/A Fog Light Freezing Fog
9:46 PM 30.2 °F 25.4 °F 30.2 °F 100% 30.27 in 0.5 mi WSW 4.6 mph - N/A Fog Light Freezing Drizzle
10:00 PM 30.2 °F 25.4 °F 30.2 °F 100% 30.27 in 0.5 mi West 4.6 mph - N/A Fog Light Freezing Drizzle
10:30 PM 30.2 °F 26.7 °F 30.2 °F 100% 30.27 in 0.4 mi SW 3.5 mph - N/A Fog Light Freezing Drizzle
11:00 PM 30.2 °F - 30.2 °F 100% 30.24 in 0.4 mi Variable 2.3 mph - N/A Fog Light Freezing Drizzle
11:30 PM 30.2 °F 25.4 °F 30.2 °F 100% 30.24 in 0.3 mi SSW 4.6 mph - N/A Fog Light Freezing Drizzle